HA8LNU Weather Reports


time (UTC)temp
F
wind
direction
speed
knots
gust
knots
rain 1hr
in
rain 24hr
in
rain mn
in
humidity
%
barometer
mb
20260504192120 54 0.0 0.0 0.00 0.00 0.00 55 1017.3
20260504191059 55 0.0 0.0 0.00 0.00 0.00 50 1017.4
20260504190056 56 0.0 0.0 0.00 0.00 0.00 50 1017.4
20260504185054 57 0.0 0.0 0.00 0.00 0.00 50 1017.4
20260504184052 57 0.0 0.0 0.00 0.00 0.00 48 1017.3
20260504183110 58 0.0 0.0 0.00 0.00 0.00 48 1017.2
20260504182048 59 0.0 0.0 0.00 0.00 0.00 46 1017.2
20260504181046 60 0.0 0.0 0.00 0.00 0.00 43 1017.0
20260504180144 61 0.0 0.0 0.00 0.00 0.00 41 1017.0
20260504175042 63 0.0 0.0 0.00 0.00 0.00 39 1017.0
20260504174059 65 0.0 0.0 0.00 0.00 0.00 34 1017.0
20260504173037 67 0.0 0.0 0.00 0.00 0.00 31 1016.9
20260504172035 69 0.0 0.0 0.00 0.00 0.00 30 1016.8
20260504171033 71 0.0 0.0 0.00 0.00 0.00 27 1016.8
20260504151108 81 251 0.9 1.7 0.00 0.00 0.00 20 1017.3
20260504150126 81 135 0.0 3.5 0.00 0.00 0.00 20 1017.4
20260504141055 84 206 0.9 3.5 0.00 0.00 0.00 14 1017.7
20260504100123 79 1 1.7 3.5 0.00 0.00 0.00 21 1020.9
20260504081039 72 338 1.7 2.6 0.00 0.00 0.00 26 1021.5
20260504060113 56 206 0.9 1.7 0.00 0.00 0.00 54 1021.7
20260504045058 45 180 0.0 1.7 0.00 0.00 0.00 79 1021.3
20260504044056 44 0.0 0.0 0.00 0.00 0.00 84 1021.1
20260504043053 42 0.0 0.9 0.00 0.00 0.00 87 1021.2
20260504042051 41 0.0 0.9 0.00 0.00 0.00 89 1021.2
20260504041109 40 0.0 0.0 0.00 0.00 0.00 90 1021.1
20260504040047 39 0.0 0.0 0.00 0.00 0.00 89 1021.2
20260504035045 38 0.0 0.9 0.00 0.00 0.00 89 1021.0
20260504034043 38 0.0 0.0 0.00 0.00 0.00 88 1021.0
20260504033041 38 0.0 0.0 0.00 0.00 0.00 87 1020.7
20260504032038 38 0.0 0.0 0.00 0.00 0.00 87 1020.7
20260504031056 38 0.0 0.0 0.00 0.00 0.00 87 1020.9
20260504030034 38 0.0 0.0 0.00 0.00 0.00 86 1020.9
20260504025032 38 0.0 0.0 0.00 0.00 0.00 86 1020.8
20260504024030 39 0.0 0.0 0.00 0.00 0.00 86 1020.7
20260504023028 39 0.0 0.0 0.00 0.00 0.00 85 1020.6
20260504022026 39 0.0 0.0 0.00 0.00 0.00 85 1020.6
20260504021024 39 0.0 0.0 0.00 0.00 0.00 84 1020.7
20260504020022 39 0.0 0.0 0.00 0.00 0.00 83 1020.7
20260504015020 39 0.0 0.0 0.00 0.00 0.00 83 1020.8
20260504014038 39 0.0 0.0 0.00 0.00 0.00 83 1020.5
20260504013015 40 0.0 0.0 0.00 0.00 0.00 83 1020.8
20260504012114 40 0.0 0.0 0.00 0.00 0.00 82 1020.7
20260504011111 40 0.0 0.0 0.00 0.00 0.00 82 1020.6
20260504010109 40 0.0 0.0 0.00 0.00 0.00 81 1020.7
20260504005107 40 0.0 0.0 0.00 0.00 0.00 81 1020.8
20260504004105 41 0.0 0.0 0.00 0.00 0.00 80 1020.6
20260504003103 41 0.0 0.0 0.00 0.00 0.00 80 1020.6
20260504002121 41 0.0 0.0 0.00 0.00 0.00 80 1020.7
20260504001059 42 0.0 0.0 0.00 0.00 0.00 80 1020.7
20260504000057 42 0.0 0.0 0.00 0.00 0.00 80 1020.9
20260503235054 42 0.0 0.0 0.00 0.00 0.00 79 1020.9
20260503234053 42 0.0 0.0 0.00 0.00 0.00 78 1020.8
20260503233050 42 0.0 0.0 0.00 0.00 0.00 77 1020.7
20260503232048 43 0.0 0.0 0.00 0.00 0.00 75 1020.8
20260503231106 43 0.0 0.0 0.00 0.00 0.00 74 1020.7
20260503230044 44 0.0 0.0 0.00 0.00 0.00 74 1020.7
20260503225042 44 0.0 0.0 0.00 0.00 0.00 73 1020.6
20260503224039 44 0.0 0.0 0.00 0.00 0.00 73 1020.5
20260503223038 44 0.0 0.0 0.00 0.00 0.00 72 1020.7
20260503222036 44 0.0 0.0 0.00 0.00 0.00 73 1020.6
20260503221033 44 0.0 0.0 0.00 0.00 0.00 73 1020.7
20260503220031 44 0.0 0.0 0.00 0.00 0.00 72 1020.7
20260503215049 44 0.0 0.0 0.00 0.00 0.00 71 1020.5
20260503214027 45 0.0 0.0 0.00 0.00 0.00 70 1020.5
20260503213045 45 0.0 0.0 0.00 0.00 0.00 70 1020.4
20260503212023 46 0.0 0.0 0.00 0.00 0.00 64 1020.4
20260503211021 46 0.0 0.0 0.00 0.00 0.00 63 1020.4
20260503210018 47 0.0 0.0 0.00 0.00 0.00 63 1020.3
20260503205037 47 0.0 0.0 0.00 0.00 0.00 63 1020.3
20260503204114 47 0.0 0.0 0.00 0.00 0.00 63 1020.4
20260503203132 47 0.0 0.0 0.00 0.00 0.00 62 1020.4
20260503202110 47 0.0 0.0 0.00 0.00 0.00 62 1020.4
20260503201108 47 0.0 0.0 0.00 0.00 0.00 62 1020.4
20260503200106 48 0.0 0.0 0.00 0.00 0.00 61 1020.4
20260503195104 48 0.0 0.0 0.00 0.00 0.00 61 1020.3
20260503194102 48 0.0 0.0 0.00 0.00 0.00 61 1020.3
20260503193100 49 0.0 0.0 0.00 0.00 0.00 60 1020.3